TimeCDT,TemperatureF,Dew PointF,Humidity,Sea Level PressureIn,VisibilityMPH,Wind Direction,Wind SpeedMPH,Gust SpeedMPH,PrecipitationIn,Events,Conditions,WindDirDegrees,DateUTC
12:51 AM,45.0,36.0,71,30.17,10.0,North,13.8,21.9,N/A,,Overcast,350,2012-10-26 05:51:00
1:51 AM,44.1,35.1,71,30.21,10.0,NNW,15.0,-,N/A,,Overcast,340,2012-10-26 06:51:00
2:51 AM,43.0,33.1,68,30.24,10.0,NNW,17.3,24.2,N/A,,Overcast,330,2012-10-26 07:51:00
3:51 AM,42.1,30.9,65,30.23,10.0,North,16.1,25.3,N/A,,Mostly Cloudy,350,2012-10-26 08:51:00
4:51 AM,42.1,32.0,67,30.26,10.0,North,15.0,-,N/A,,Mostly Cloudy,350,2012-10-26 09:51:00
5:51 AM,41.0,30.9,67,30.28,10.0,NNW,19.6,-,N/A,,Mostly Cloudy,340,2012-10-26 10:51:00
6:51 AM,41.0,30.0,65,30.31,10.0,North,15.0,23.0,N/A,,Mostly Cloudy,360,2012-10-26 11:51:00
7:51 AM,39.9,28.9,65,30.33,10.0,North,10.4,-,N/A,,Mostly Cloudy,350,2012-10-26 12:51:00
8:48 AM,39.2,28.4,65,30.34,10.0,North,12.7,20.7,N/A,,Mostly Cloudy,350,2012-10-26 13:48:00
8:51 AM,39.9,28.9,65,30.36,10.0,North,10.4,19.6,N/A,,Mostly Cloudy,350,2012-10-26 13:51:00
9:51 AM,44.1,30.0,58,30.35,10.0,North,17.3,24.2,N/A,,Mostly Cloudy,360,2012-10-26 14:51:00
10:51 AM,43.0,28.9,58,30.36,10.0,North,16.1,24.2,N/A,,Scattered Clouds,10,2012-10-26 15:51:00
11:51 AM,46.0,30.0,54,30.36,10.0,North,15.0,19.6,N/A,,Scattered Clouds,350,2012-10-26 16:51:00
12:51 PM,48.0,30.0,50,30.34,10.0,North,12.7,21.9,N/A,,Scattered Clouds,350,2012-10-26 17:51:00
1:51 PM,50.0,30.9,48,30.33,10.0,North,10.4,-,N/A,,Scattered Clouds,360,2012-10-26 18:51:00
3:51 PM,50.0,28.9,44,30.31,10.0,North,13.8,20.7,N/A,,Scattered Clouds,10,2012-10-26 20:51:00
4:51 PM,50.0,28.9,44,30.30,10.0,North,13.8,19.6,N/A,,Scattered Clouds,350,2012-10-26 21:51:00
5:51 PM,48.0,28.9,48,30.31,10.0,North,11.5,-,N/A,,Scattered Clouds,350,2012-10-26 22:51:00
6:51 PM,46.0,30.0,54,30.32,10.0,North,10.4,-,N/A,,Scattered Clouds,350,2012-10-26 23:51:00
7:51 PM,45.0,30.0,56,30.33,10.0,North,9.2,-,N/A,,Partly Cloudy,350,2012-10-27 00:51:00
8:51 PM,44.1,30.0,58,30.32,10.0,NNW,11.5,-,N/A,,Scattered Clouds,340,2012-10-27 01:51:00
9:51 PM,43.0,28.9,58,30.33,10.0,North,9.2,-,N/A,,Partly Cloudy,350,2012-10-27 02:51:00
10:51 PM,42.1,28.9,60,30.33,10.0,North,10.4,-,N/A,,Clear,350,2012-10-27 03:51:00
11:51 PM,42.8,28.4,57,30.31,10.0,North,10.4,18.4,N/A,,Clear,360,2012-10-27 04:51:00